Regional Weather Roundup
Issued by NWS

Home | Current Version | Previous Version | Text Only | Print | Product List | Glossary On
Versions: 1 2 3 4 5 6 7 8 9 10 11 12 13 14 15 16 17 18 19 20 21 22 23 24 25 26 27 28 29 30 31 32 33 34 35 36 37 38 39 40 41 42 43 44 45 46 47 48 49 50
094
ASUS44 KLIX 130910
RWRLA
LOUISIANA WEATHER ROUNDUP
NATIONAL WEATHER SERVICE NEW ORLEANS LA
300 AM CST SAT FEB 13 2016

NOTE: "FAIR" INDICATES FEW OR NO CLOUDS BELOW 12,000 FEET WITH NO
      SIGNIFICANT WEATHER AND/OR OBSTRUCTIONS TO VISIBILITY.
      SKY/WX - SKY CONDITION AND SIGNIFICANT WEATHER.
      TMP - AIR TEMPERATURE.    DP   - DEWPOINT TEMPERATURE.
      RH  - RELATIVE HUMIDITY.  PRES - PRESSURE.
      HX  - HEAT INDEX.         WCI  - WIND CHILL INDEX.

*  THESE STATIONS ARE NOT NWS OR FAA STATIONS AND ARE NOT UNDER
   NWS QUALITY CONTROL.

LAZ040-048-061>063-065-066-069-131000-
SOUTHEAST LOUISIANA

CITY           SKY/WX    TMP DP  RH WIND       PRES   REMARKS
N.O. AUDUBON     N/A     55  38  51 MISG        N/A
N.O. INTL ARPT PTCLDY    53  38  56 NE7       30.30S
N.O. LAKEFRONT CLEAR     54  38  54 NE14      30.31R
N.O. DOWNTOWN* NOT AVBL
RESERVE*       FAIR      56  33  42 NE10G17   30.30S
SLIDELL        PTCLDY    51  34  52 N10       30.30R
BATON ROUGE    PTCLDY    51  33  50 NE6       30.32R
BOOTHVILLE     PTCLDY    55  45  68 N7        30.29R
BELLE CHASSE   CLEAR     54  36  50 NE9       30.29S
BOGALUSA*        N/A     46  34  63 N5        30.34R
GALLIANO*      MOSUNNY   54  47  75 N5        30.29S
NEW ROADS*     FAIR      48  35  60 NE7       30.33R
GONZALES*      FAIR      53  35  50 CALM      30.31R
HAMMOND*       PTCLDY    50  32  50 N6        30.31R
HOUMA*         PTCLDY    51  44  77 N6        30.30R
PORT FOURCHON* SUNNY     59  52  77 N7        30.29S

$$

LAZ041-044-053-054-131000-
SOUTHWEST LOUISIANA

CITY           SKY/WX    TMP DP  RH WIND       PRES   REMARKS
LAKE CHARLES   CLEAR     51  46  83 NE7       30.29S
LAFAYETTE      PTCLDY    57  40  52 NE6       30.31R
PATTERSON      MOCLDY    54  45  71 NE6       30.31R
SALT POINT       N/A     53  52  96 CALM      30.29R
NEW IBERIA     PTCLDY    56  41  57 NE8       30.31R
CHENAULT AIRPK CLOUDY    54  46  76 NE3       30.30R

$$

LAZ027-028-131000-
CENTRAL LOUISIANA

CITY           SKY/WX    TMP DP  RH WIND       PRES   REMARKS
FORT POLK      CLEAR     51  38  63 NE7       30.32R
ALEXANDRIA INT CLEAR     49  36  61 NE10      30.34R
ALEXANDRIA     CLEAR     51  35  54 VRB3      30.36R

$$

LAZ001-002-131000-
NORTHWEST LOUISIANA

CITY           SKY/WX    TMP DP  RH WIND       PRES   REMARKS
SHREVEPORT     CLEAR     47  35  63 E7        30.37R
BARKSDALE AFB  CLEAR     46  34  61 E9        30.38R
DTN SHREVEPORT CLEAR     47  34  60 NE5       30.39R

$$

LAZ014-016-131000-
NORTHEAST LOUISIANA

CITY           SKY/WX    TMP DP  RH WIND       PRES   REMARKS
MONROE         CLEAR     41  33  73 NE8       30.41R
TALLULAH       CLEAR     45  33  63 N6        30.39R

$$





USA.gov is the U.S. government's official web portal to all federal, state and local government web resources and services.